User: anonymous
Location: Caltech
(34.1382°N, 118.1253°W)
Time: 23:10:57
(UTC-07:00)
Language:

Cosmos 2084 - Orbit

View from above orbital plane
View from above orbital plane
View from above satellite
View from above satellite

Ground track
Ground track

The orbit data is extracted from the following two-line orbital elements,

1 20663U 90055A   14264.14194432  .00000991  00000-0  12131-3 0  2297
2 20663 062.7966 321.3347 0041818 318.9051 040.8894 14.89288093310714
Epoch (UTC): 21 September 2014 03:24:23
Eccentricity: 0.0041818
inclination: 62.7966°
perigee height: 571 km
apogee height: 629 km
right ascension of ascending node: 321.3347°
argument of perigee: 318.9051°
revolutions per day: 14.89288093
mean anomaly at epoch: 40.8894°
orbit number at epoch: 31071

The dashed part of the orbit path shows where the satellite is in the earth's shadow,  

DLR